Probability
0 0 0 0 0 0 0 0 0 0 0 0 0 0 0 0 0 0 0 0 0 0 0 0 0 0 0 0 0 0 0 0 0 0 0 0 0 0 0 0 0 0 0
0 0 0 0 0 0 0 0 0 0 0 0 0 0 0 0 0 0 0 0 0 0 0 0 0 0 0 0 0 0 0 0 0 0 0 0 0 0 0 0 0 0 0
0 0 0 0 0 0 0 0 0 0 0 0 0 0 0 0 0 0 0 0 0 0 0 0 0 0 0 0 0 0 0 0 0 0 0 0 0 0 0 0 0 0 0
0 0 0 0 0 0 0 0 0 0 0 0 0 0 0 0 0 0 0 0 0 0 0 0 0 0 0 0 0 0 0 0 0 0 0 0 0 0 0 0 0 0 0
0 0 0 0 0 0 0 0 0 0 0 0 0 0 0 0 0 0 0 0 0 0 0 0 0 0 0 0 0 0 0 0 0 0 0 0 0 0 0 0 0 0 0
0 0 0 0 0 0 0 0 0 0 0 0 0 0 0 0 0 0 0 0 0 0 0 0 0 0 0 0 0 0 0 0 0 0 0 0 0 0 0 0 0 0 0
0 0 0 0 0 0 0 0 0 0 0 0 0 0 0 0 0 0 0 0 0 0 0 0 0 0 0 0 0 0 0 0 0 0 0 0 0 0 0 0 0 0 0
0 0 0 0 0 0 0 0 0 0 0 0 0 0 0 0 0 0 0 0 0 0 0 0 0 0 0 0 0 0 0 0 0 0 0 0 0 0 0 0 0 0 0
0 0 0 0 0 0 0 0 0 0 0 0 0 0 0 0 0 0 0 0 0 0 0 0 0 0 0 0 0 0 0 0 0 0 0 0 0 0 0 0 0 0 0
0 0 0 0 0 0 0 0 0 0 0 0 0 0 0 0 0 0 0 0 0 0 0 0 0 0 0 0 0 0 0 0 0 0 0 0 0 0 0 0 0 0 0
0 0 0 0 0 0 0 0 0 0 0 0 0 0 0 0 0 0 0 0 0 0 0 0 0 0 0 0 0 0 0 0 0 0 0 0 0 0 0 0 0 0 0
0 0 0 0 0 0 0 0 0 0 0 0 0 0 0 0 0 0 0 0 0 0 0 0 0 0 0 0 0 0 0 0 0 0 0 0 0 0 0 0 0 0 0
0 0 0 0 0 0 0 0 0 0 0 0 0 0 0 0 0 0 0 0 0 0 0 0 0 0 0 0 0 0 0 0 0 0 0 0 0 0 0 0 0 0 0
0 0 0 0 0 0 0 0 0 0 0 0 0 0 0 0 0 0 0 0 0 0 0 0 0 0 0 0 0 0 0 0 0 0 0 0 0 0 0 0 0 0 0
0 0 0 0 0 0 0 0 0 0 0 0 0 0 0 0 0 0 0 0 0 0 0 0 0 0 0 0 0 0 0 0 0 0 0 0 0 0 0 0 0 0 0
0 0 0 0 0 0 0 0 0 0 0 0 0 0 0 0 0 0 0 0 0 0 0 0 0 0 0 0 0 0 0 0 0 0 0 0 0 0 0 0 0 0 0
0 0 0 0 0 0 0 0 0 0 0 0 0 0 0 0 0 0 0 0 0 0 0 0 0 0 0 0 0 0 0 0 0 0 0 0 0 0 0 0 0 0 0
0 0 0 0 0 0 0 0 0 0 0 0 0 0 0 0 0 0 0 0 0 0 0 0 0 0 0 0 0 0 0 0 0 0 0 0 0 0 0 0 0 0 0
0 0 0 0 0 0 0 0 0 0 0 0 0 0 0 0 0 0 0 0 0 0 0 0 0 0 0 0 0 0 0 0 0 0 0 0 0 0 0 0 0 0 0
0 0 0 0 0 0 0 0 0 0 0 0 0 0 0 0 0 0 0 0 0 0 0 0 0 0 0 0 0 0 0 0 0 0 0 0 0 0 0 0 0 0 0
0 0 0 0 0 0 0 0 0 0 0 0 0 0 0 0 0 0 0 0 0 0 0 0 0 0 0 0 0 0 0 0 0 0 0 0 0 0 0 0 0 0 0
0 0 0 0 0 0 0 0 0 0 0 0 0 0 0 0 0 0 0 0 0 0 0 0 0 0 0 0 0 0 0 0 0 0 0 0 0 0 0 0 0 0 0
0 0 0 0 0 0 0 0 0 0 0 0 0 0 0 0 0 0 0 0 0 0 0 0 0 0 0 0 0 0 0 0 0 0 0 0 0 0 0 0 0 0 0
0 0 0 0 0 0 0 0 0 0 0 0 0 0 0 0 0 0 0 0 0 0 0 0 0 0 0 0 0 0 0 0 0 0 0 0 0 0 0 0 0 0 0
0 0 0 0 0 0 0 0 0 0 0 0 0 0 0 0 0 0 0 0 0 0 0 0 0 0 0 0 0 0 0 0 0 0 0 0 0 0 0 0 0 0 0
0 0 0 0 0 0 0 0 0 0 0 0 0 0 0 0 0 0 0 0 0 0 0 0 0 0 0 0 0 0 0 0 0 0 0 0 0 0 0 0 0 0 0
Wind_Speed
12 8 9 9 9 10 11 12 12 11 9 6 6 6 6 5 4 5 6 7 6 7 6 4 4 4 4 4 3 2 2 1 1 2 4 4 3 2 2 2 2 3 4
9 9 9 11 13 13 14 13 13 12 11 9 7 4 4 4 4 5 6 7 7 7 6 6 5 5 4 4 3 3 2 1 1 0 2 4 5 3 2 2 2 3 3
14 12 12 13 14 15 16 14 15 14 13 10 6 4 3 3 4 5 5 6 7 7 7 7 5 5 4 4 4 4 4 2 1 1 1 1 3 4 3 2 2 3 3
13 12 12 13 15 17 14 14 14 14 13 12 10 10 9 8 7 5 5 6 7 7 7 6 6 5 4 4 4 4 3 3 2 1 2 2 1 2 4 4 2 3 4
14 14 14 15 15 13 13 13 13 13 13 13 14 13 10 7 5 5 6 6 5 5 6 6 5 5 4 4 4 4 4 3 2 2 1 1 1 2 2 5 4 3 3
13 13 11 9 9 9 10 10 12 13 13 15 14 14 13 10 8 7 6 5 3 3 4 5 4 4 4 4 4 4 4 3 2 2 1 1 1 1 2 4 4 4 3
11 11 11 11 11 11 12 12 14 14 14 15 15 15 13 12 12 9 8 7 4 4 5 4 4 4 4 4 4 4 4 3 3 2 2 1 1 0 1 2 3 3 3
9 11 11 11 11 11 12 12 14 14 14 15 14 13 12 9 8 9 8 8 6 5 5 5 5 5 5 5 5 4 4 4 4 4 3 2 2 1 1 0 2 4 3
9 9 8 8 8 9 10 11 12 12 13 13 12 11 11 10 8 8 8 6 6 6 7 7 7 6 6 6 6 5 4 5 4 4 4 3 3 2 2 2 1 1 3
8 7 6 6 6 6 5 6 8 9 9 10 10 8 9 9 9 8 9 8 8 8 8 7 7 7 6 6 6 5 5 6 4 4 5 4 3 3 3 2 2 1 1
8 7 5 4 4 4 5 5 6 6 7 8 8 8 8 8 9 8 9 9 9 9 9 8 8 7 7 6 6 6 6 6 5 5 5 5 3 3 2 2 2 1 1
5 5 5 5 5 5 5 5 5 6 6 7 7 8 8 9 9 9 9 10 10 9 9 9 8 8 7 6 7 7 6 6 6 5 5 4 3 3 2 2 2 1 1
5 5 5 6 5 5 5 5 5 5 5 6 8 8 9 9 10 10 10 10 10 10 9 9 9 8 7 7 6 7 6 6 5 5 4 3 3 3 2 2 1 1 2
6 6 6 6 6 5 5 5 5 5 6 7 8 9 9 9 10 10 10 10 10 11 9 8 8 8 7 7 7 7 7 6 5 4 4 3 3 2 1 1 1 1 2
7 8 8 7 6 6 6 6 6 6 6 7 8 8 8 9 9 10 10 9 9 10 10 10 8 7 6 6 7 7 6 6 5 4 3 2 2 2 1 1 1 1 2
10 9 9 9 9 9 8 7 7 7 7 8 8 8 9 9 9 10 10 10 10 9 9 9 9 7 5 10 11 8 6 5 5 4 3 2 1 1 2 3 3 3 3
10 11 12 12 11 10 10 10 8 7 7 8 8 9 9 10 10 10 10 11 10 9 9 8 8 7 8 12 11 10 6 5 4 4 3 1 1 0 1 3 4 4 6
10 11 11 10 8 8 8 8 8 9 9 9 9 9 10 10 10 10 10 9 8 9 8 8 8 7 7 11 11 11 6 5 4 3 2 1 0 1 2 2 2 2 3
10 9 9 9 9 10 11 10 9 9 10 10 10 10 11 11 11 11 10 8 8 8 7 7 7 7 7 10 10 10 5 4 3 2 1 1 1 3 4 2 2 3 3
6 6 6 8 10 10 11 12 11 11 12 11 10 9 10 11 11 11 9 6 8 8 8 7 6 6 5 8 9 9 4 3 2 1 1 1 2 4 4 2 2 4 4
4 6 8 9 9 11 12 12 11 12 9 9 9 9 8 9 9 9 7 9 8 8 7 7 5 4 4 6 7 7 4 3 3 2 1 2 4 5 5 4 2 5 5
3 6 7 7 7 10 12 12 11 8 9 10 10 9 8 8 8 10 8 8 9 9 8 7 5 3 3 3 5 6 5 4 3 2 2 2 5 5 5 4 4 6 4
3 3 5 6 6 8 9 10 8 9 10 10 10 9 9 7 8 10 11 8 7 7 7 6 6 4 3 3 5 4 4 4 3 2 3 4 5 4 2 3 4 3 1
2 3 5 6 6 5 5 6 9 10 11 11 10 9 10 9 7 6 7 8 8 7 7 6 6 5 4 3 3 2 2 2 2 1 1 3 3 1 1 1 2 1 1
1 2 4 4 5 5 5 7 9 11 11 10 9 9 8 9 8 6 4 6 4 5 7 6 6 7 6 6 8 5 4 3 3 2 1 1 1 1 1 1 1 1 1
2 2 3 3 4 5 5 6 8 10 11 10 9 8 7 7 7 7 5 5 5 6 7 8 7 4 6 8 9 8 7 7 6 4 2 3 2 2 2 2 2 1 2
Wind_Direction
224 207 200 196 192 193 194 194 194 193 184 181 186 191 202 199 198 200 196 193 190 186 186 190 190 185 196 205 196 191 220 258 279 320 318 315 319 333 326 336 346 352 352
224 213 201 197 200 201 201 200 199 195 192 194 187 180 174 187 193 192 195 194 191 191 193 195 195 192 197 201 192 178 178 223 175 101 341 335 339 338 338 350 358 351 349
223 216 207 206 205 207 205 203 202 198 196 189 172 155 153 155 177 192 197 198 194 194 193 197 193 190 189 200 197 187 184 204 196 173 168 325 309 314 319 334 346 349 348
225 220 211 209 209 211 205 204 201 199 194 187 185 184 193 201 198 186 187 190 194 195 194 193 190 190 189 197 195 186 183 180 199 191 207 218 221 282 310 316 329 345 337
221 221 215 213 212 207 202 202 199 199 194 192 194 196 204 204 181 170 179 186 185 189 189 186 182 182 182 187 177 171 174 179 185 181 180 205 220 219 258 292 311 326 314
221 224 221 212 211 202 198 195 196 200 196 195 197 199 201 192 178 178 180 179 175 180 181 175 174 172 171 172 167 163 159 160 159 155 151 162 186 210 245 277 301 310 307
219 220 216 209 206 198 197 195 196 200 197 198 201 201 199 193 192 185 182 176 176 179 181 169 162 156 156 148 142 139 136 138 137 141 136 127 128 121 226 275 299 301 297
223 221 216 209 205 200 196 195 198 201 197 199 202 200 195 193 193 185 177 180 179 174 162 154 144 139 138 134 129 120 117 114 118 112 111 104 82 70 72 31 318 309 305
227 223 216 207 201 196 195 195 197 198 197 198 196 193 190 187 181 173 169 162 154 146 144 140 133 131 127 124 120 115 115 111 105 105 99 93 79 70 62 59 64 319 309
223 216 206 200 194 188 184 185 192 195 192 191 190 187 185 182 171 162 161 155 148 143 140 134 132 127 121 119 115 114 115 109 101 98 96 88 76 68 61 58 53 52 281
214 206 197 185 173 164 168 174 181 183 184 185 180 174 172 164 159 159 157 150 145 143 142 140 134 128 124 122 118 115 116 113 104 94 95 88 82 77 64 57 54 37 338
206 191 180 171 171 172 171 173 175 178 179 173 167 166 157 153 154 151 147 144 140 138 138 136 129 126 124 123 124 123 120 118 113 106 102 96 90 80 65 55 43 17 343
197 181 179 183 184 179 174 171 169 165 159 156 156 154 153 153 151 146 143 139 136 132 131 131 132 131 128 124 122 123 119 114 113 114 113 108 98 84 63 46 27 354 339
203 196 196 195 190 183 176 169 163 155 152 151 153 154 153 150 145 141 139 137 136 134 131 127 127 127 125 125 124 121 117 114 110 109 109 107 104 103 78 41 357 332 325
216 209 205 199 192 186 179 170 161 155 152 150 150 146 138 135 134 133 131 129 127 128 128 125 121 122 125 131 131 126 125 123 119 111 103 98 95 82 67 11 322 325 318
224 215 208 201 198 192 183 172 166 160 154 153 148 140 137 134 134 133 131 127 124 124 126 129 131 131 131 138 136 133 130 130 129 126 114 101 95 39 7 343 331 329 316
220 213 210 207 201 192 180 177 168 155 154 151 147 147 144 141 140 137 134 134 133 131 130 131 133 131 137 139 136 133 130 130 131 130 128 122 109 40 313 315 325 324 315
223 218 211 204 190 175 167 159 153 156 156 155 155 154 150 144 142 139 138 136 135 138 136 138 135 129 137 140 137 135 127 127 129 134 141 151 196 293 296 283 295 297 297
221 215 201 187 173 171 163 155 158 161 163 167 166 164 157 151 150 149 145 139 138 136 134 137 137 135 139 144 143 138 130 129 132 141 159 187 231 288 314 310 295 297 294
217 195 170 164 170 168 159 161 168 173 180 176 167 161 158 156 156 151 144 135 137 135 132 131 133 135 139 150 149 145 138 140 145 156 183 227 267 291 303 279 270 288 292
191 163 164 173 174 162 161 171 176 187 175 153 148 151 153 151 146 138 136 136 134 130 128 128 129 133 142 155 157 158 150 156 160 178 206 245 279 289 292 291 256 281 302
153 158 165 167 159 162 168 179 187 168 144 144 147 149 146 142 141 138 135 136 138 136 136 136 137 138 144 159 165 170 172 165 167 193 212 242 270 283 292 297 297 309 325
155 154 156 151 154 169 176 181 165 144 144 146 148 146 141 139 146 148 147 145 146 148 153 156 157 159 160 175 180 188 192 191 180 200 232 251 267 285 304 312 320 337 337
136 139 146 158 167 170 170 156 145 148 149 152 151 150 148 145 143 145 152 155 161 161 161 166 166 164 172 185 188 187 195 205 207 208 247 267 274 274 337 331 338 352 306
101 136 159 168 165 154 148 143 150 151 152 152 152 153 152 151 149 144 154 158 163 173 170 173 166 169 185 198 191 180 189 190 193 168 151 168 216 223 270 281 280 294 322
95 121 140 148 150 150 149 151 158 158 155 156 160 160 156 153 151 145 131 150 151 163 168 166 165 175 181 180 191 198 202 203 197 174 184 205 210 219 231 242 256 249 256